www.pogodaiklimat.ru

Погода и климат >> Архив погоды >> Индия >> Deesa


ПОГОДА в Deesa

  • Прогноз погоды в Deesa
  • Монитор погоды в Deesa
  • Климат города

АРХИВ ПОГОДЫ в Deesa

Время (UTC), дата Ветер
(напр.,м/с)
 
Видим.   Явления Облачность Т
(С)
Тd
(С)
f
(%)
Тe
(С)
Тes
(С)
Комфортность P
(гПа)
Po
(гПа)
Тmin
(С)
Tmax
(С)
R
(мм)
R24
(мм)
S
(см)
09 13.09 Ю 4 4000 м 8/6 360 м
[Cu Sc Ac trans]
+31.8 +22.3 57 +41 +44 опасность
перегрева
1005.9 1006.0
12 13.09 Ю 3 4000 м 8/6 600 м
[Cu Sc Ac trans]
+31.6 +22.2 58 +41 +41 опасность
перегрева
1005.2 1005.0 +32.0
03 14.09 Ю 2 4000 м 5/5 600 м
[Sc]
+25.2 +22.8 87 +33 +36 очень
душно
1007.5 1008.0 +23.2
06 14.09 Ю 3 4000 м 8/8 600 м
[Cu Sc]
+30.0 +23.0 66 +40 +43 очень
душно
1009.4 1009.0
09 14.09 Ю 4 10 км 6/6 600 м
[Cu Sc]
+32.8 +22.6 55 +42 +46 опасность
перегрева
1007.2 1007.0
12 14.09 Ю 2 4000 м 4/4 600 м
[Cu Sc]
+33.0 +21.5 51 +41 +42 опасность
перегрева
1006.6 1007.0 +34.0
03 15.09 нст 1 4000 м 6/5 600 м
[Sc Ac trans]
+25.8 +21.9 79 +33 +35 очень
душно
1011.2 1011.0 +24.0
06 15.09 Ю 2 10 км 4/4 600 м
[Cu Sc]
+30.6 +22.4 62 +40 +51 опасность
солнечного
удара
1011.2 1011.0
09 15.09 Ю 3 10 км 4/4 600 м
[Cu Sc]
+33.0 +22.2 53 +42 +49 опасность
перегрева
1008.5 1009.0
12 15.09 Ю 2 4000 м 4/4 600 м
[Cu Sc]
+33.2 +20.7 48 +40 +41 очень
душно
1007.3 1007.0 +35.0
03 16.09 штиль 0 4000 м ясно +27.0 +21.3 71 +34 +40 очень
душно
1010.9 1011.0 +24.4
06 16.09 З 2 10 км 1/1 600 м
[Sc]
+32.0 +23.0 59 +42 +59 опасность
перегрева
1010.5 1011.0
09 16.09 штиль 0 10 км 3/3 600 м
[Cu Sc]
+33.4 +22.3 52 +42 +56 опасность
перегрева
1007.3 1007.0
12 16.09 нст 1 4000 м 3/3 600 м
[Sc]
+34.2 +20.9 46 +41 +43 опасность
перегрева
1006.1 1006.0 +35.4
03 17.09 штиль 0 4000 м 1/1 600 м
[Sc]
+27.6 +21.6 70 +35 +40 очень
душно
1008.9 1009.0 +25.4
06 17.09 З 2 10 км ясно +32.0 +22.4 57 +41 +60 опасность
перегрева
1008.9 1009.0
09 17.09 нст 1 10 км 3/3 600 м
[Cu Sc]
+33.4 +22.0 51 +42 +54 опасность
перегрева
1006.5 1007.0
12 17.09 нст 1 4000 м ясно +34.8 +20.5 43 +41 +43 опасность
перегрева
1005.3 1005.0 +35.8
03 18.09 С 2 4000 м ясно +27.4 +21.1 69 +35 +39 очень
душно
1009.4 1009.0 +24.4
06 18.09 С 2 10 км ясно +33.0 +22.5 54 +42 +60 опасность
перегрева
1009.0 1009.0
09 18.09 СЗ 2 10 км ясно +35.2 +22.8 49 +45 +61 опасность
перегрева
1006.4 1006.0
12 18.09 нст 1 4000 м ясно +35.0 +21.9 47 +44 +46 опасность
перегрева
1005.6 1006.0 +36.4
03 19.09 нст 1 4000 м ясно +27.6 +22.3 73 +36 +41 очень
душно
1010.3 1010.0 +25.6
06 19.09 З 2 4000 м ясно +32.2 +22.3 56 +41 +59 опасность
перегрева
1009.6 1010.0
09 19.09 З 2 4000 м ясно +35.6 +22.9 48 +45 +60 опасность
перегрева
1006.0 1006.0
12 19.09 З 2 4000 м ясно +35.4 +22.0 46 +44 +46 опасность
перегрева
1004.8 1005.0 +36.5
03 20.09 СЗ 1 4000 м ясно +27.6 +22.3 73 +36 +41 очень
душно
1008.3 1008.0 +24.6
06 20.09 штиль 0 4000 м ясно +33.0 +20.4 48 +40 +62 опасность
солнечного
удара
1008.0 1008.0

 

Местоположение метеостанции Deesa (Gujarat, Индия): широта 24.20 долгота 72.20 высота над уровнем моря 136 м.

В архиве по умолчанию представлена погода в Deesa за последнюю неделю. Архивные данные за месяц целиком и за предыдущие месяцы, начиная с января 2011 года, Вы можете получить, выбрав интересующий диапазон дат из раскрывающегося списка и нажав кнопку "Ввод!".


*Определитесь, кто Вы:
робот инопланетянин человек

Внимание! Время в таблицах - всемирное. Для получения местного времени необходимо прибавить поправку, которая в Deesa равна 5.5 ч.

Смотрите также архив погоды в соседних городах и на ближайших метеорологических станциях:

Погода в Mount Abu (Rajasthan, Индия) (69 км)
Погода в Gandhinagar (Gujarat, Индия) (120 км)
Погода в Ahmedabad (Gujarat, Индия) (133 км)
Погода в Surendranagar (Gujarat, Индия) (175 км)
Погода в Maharana Pratap Airport (Rajasthan, Индия) (176 км)
Погода в Barmer (Rajasthan, Индия) (191 км)
Погода в Vallabh Vidyanagar (Gujarat, Индия) (196 км)
Погода в Baroda (Gujarat, Индия) (235 км)
Погода в New Kandla (Gujarat, Индия) (242 км)
Погода в Kandla (Gujarat, Индия) (246 км)

Пояснения к столбцам:

Ветер - указаны скорость ветра в м/с - средняя за 10 мин, порывы в срок и между сроками (в фигурных скобках) и направление, откуда дует ветер: С - северный, СВ - северо-восточный, В - восточный, ЮВ - юго-восточный, Ю - южный, ЮЗ - юго-западный, З - западный, СЗ - северо-западный.
Видимость - горизонтальная дальность видимости в метрах или километрах. При видимости от 1 до 10 км при отсутствии осадков обычно наблюдается дымка, при ухудшении видимости до 1 км и менее - туман. В сухую погоду видимость может ухудшаться дымом, пылью или мглою.
Явления - указаны атмосферные явления, наблюдавшиеся в срок или в последний час перед сроком; фигурными скобками обозначены явления, наблюдавшиеся между сроками (за 1-3 часа до срока); квадратными скобками обозначены град или гололедные отложения с указанием их диаметра в мм.
Облачность - указаны через наклонную черту общая и нижняя облачность в баллах и высота нижней границы облаков в метрах; квадратными скобками обозначены формы облаков: Ci - перистые, Cs - перисто-слоистые, Cc - перисто-кучевые, Ac - высококучевые, As - высокослоистые, Sc - слоисто-кучевые, Ns - слоисто-дождевые, Cu - кучевые, Cb - кучево-дождевые. Подробнее классификацию облаков см. в Атласе облаков (PDF).
T - Температура воздуха - температура, измеренная на высоте 2 м над землей.
Td - Температура точки росы - температура, при понижении до которой содержащийся в воздухе водяной пар достигнет насыщения.
f - Относительная влажность воздуха - влажноcть воздуха, измеренная на высоте 2 м над землей.
Te - Эффективная температура - температура, которую ощущает одетый по сезону человек в тени. Характеристика душности погоды. При расчете учитывается влияние влажности воздуха и скорости ветра на теплоощущения человека.
Tes - Эффективная температура на солнце - температура, которую ощущает человек, с поправкой на солнечный нагрев. Характеристика знойности погоды. Зависит от высоты солнца над горизонтом, облачности и скорости ветра. Ночью, в пасмурную погоду, а также при ветре 12 м/с и более поправка равна нулю.
P - Атмосферное давление - приведенное к уровню моря атмосферное давление.
Po - Атмосферное давление - измеренное на уровне метеостанции атмосферное давление.
Tmin - Минимальная температура - минимум температуры воздуха на высоте 2 м над землей.
Tmax - Максимальная температура - максимум температуры воздуха на высоте 2 м над землей.
R - Количество осадков - Количество выпавших осадков за период времени, мм. При наведении курсора мыши на число - период времени, за который выпало указанное количество осадков.
R24 - Количество осадков - Количество выпавших осадков за 24 часа, мм.
S - Снежный покров - Высота снежного покрова, см. При наведении курсора мыши на число - состояние снежного покрова и степень покрытия местности в баллах.